Regional Weather Roundup
Issued by NWS Cleveland, OH

Home | Current Version | Previous Version | Graphics & Text | Print | Product List | Glossary On
Versions: 1 2 3 4 5 6 7 8 9 10 11 12 13 14 15 16 17 18 19 20 21 22 23 24 25 26 27 28 29 30 31 32 33 34 35 36 37 38 39 40 41 42 43 44 45 46 47 48 49 50
000
ASUS41 KCLE 241610
RWRCLE
OHIO REGIONAL WEATHER ROUNDUP
NATIONAL WEATHER SERVICE WILMINGTON, OH
1200 PM EDT SAT JUN 24 2017

NOTE: "FAIR" INDICATES FEW OR NO CLOUDS BELOW 12,000 FEET WITH NO
SIGNIFICANT WEATHER AND/OR OBSTRUCTIONS TO VISIBILITY.

OHZ001>008-015>018-024>027-034-035-043-044-241700-
   NORTHWEST OHIO

CITY           SKY/WX    TMP DP  RH WIND       PRES   REMARKS
DEFIANCE       FAIR      71  54  54 W13G22    29.92S
FINDLAY        FAIR      75  56  51 W13       29.91S
TOLEDO EXPRESS FAIR      74  55  51 W16       29.90R
TOLEDO EXEC    FAIR      76  54  46 W16       29.90R
LIMA           FAIR      72  57  59 W15       29.94R
$$

OHZ009>014-019>023-028>033-038-089-241700-
   NORTHEAST OHIO

CITY           SKY/WX    TMP DP  RH WIND       PRES   REMARKS
CLE-HOPKINS    FAIR      76  57  51 W15G21    29.90R
CLE-LAKEFRONT  FAIR      73  63  70 W14       29.87R
CUY CO. ARPT   MOSUNNY   73  63  68 W16       29.88R
LORAIN-ELYRIA  FAIR      73  54  51 W8        29.90R
ASHTABULA      FAIR      73  60  63 W10G20    29.87R
AKRON-CANTON   FAIR      76  57  51 W14       29.90R
WOOSTER        FAIR      73  59  61 W12       29.92R
MANSFIELD      FAIR      72  56  57 W9G18     29.93R
YOUNGSTOWN     PTSUNNY   74  55  51 W15       29.88R
$$

OHZ042-051>053-060>062-070>072-077>081-241700-
  SOUTHWEST OHIO

CITY           SKY/WX    TMP DP  RH WIND       PRES   REMARKS
CINC-COVINGTON FAIR      74  60  61 W9        30.00S
CINC-LUNKEN    FAIR      74  61  63 W7        29.99S
HAMILTON       FAIR      75  63  66 W7        29.99F
DAYTON         FAIR      73  58  59 W12       29.99R
WRIGHT-PAT AFB PTSUNNY   73  60  63 W7        29.97S
DAYTON GENERAL PTSUNNY   72  59  63 W10       29.98S
WILMINGTON     PTSUNNY   72  63  73 W9        29.98S
$$

OHZ036-037-039>041-045>050-054>059-063>069-073>076-082>088-241700-
  CENTRAL AND SOUTHEAST OHIO

CITY           SKY/WX    TMP DP  RH WIND       PRES   REMARKS
COLUMBUS       FAIR      75  60  59 W9        29.94S
OSU AIRPORT    FAIR      73  60  63 W10       29.95R
BOLTON FIELD   SUNNY     73  61  64 W10       29.96S
RICKENBACK AFB FAIR      73  60  63 W10       29.95S
NEWARK         FAIR      77  59  53 W12       29.94R
MARION         FAIR      73  57  57 W9        29.94S
LANCASTER      FAIR      73  62  68 VRB7      29.96R
ZANESVILLE     FAIR      76  62  62 SW13      29.94R
NEW PHILLY     FAIR      76  63  64 W8        29.92R
$$




USA.gov is the U.S. government's official web portal to all federal, state and local government web resources and services.